493  
ASUS44 KOUN 150800  
RWROK  
 
WEATHER ROUNDUP FOR OKLAHOMA  
NATIONAL WEATHER SERVICE NORMAN OK  
300 AM CDT SUN SEP 15 2019  
 
NOTE: "FAIR" INDICATES FEW OR NO CLOUDS BELOW 12,000 FEET WITH NO  
SIGNIFICANT WEATHER AND/OR S TO VISIBILITY
.  
 
OKZ001>007-009>012-014-015-017-150900-  
NORTHWEST OKLAHOMA AND THE PANHANDLE  
 
CITY SKY/WX TMP DP RH WIND PRES REMARKS
 
GAGE CLEAR 74 58 57 S10 30.13S  
GUYMON CLEAR 72 55 55 S13 30.13S  
ENID/WOODRING CLEAR 70 68 94 CALM 30.09F  

 
 
OKZ016-021>023-033>039-044-045-150900-  
SOUTHWEST OKLAHOMA  
 
CITY SKY/WX TMP DP RH WIND PRES REMARKS
 
LAWTON/REGL CLEAR 71 68 90 CALM 30.11F  
LAWTON/FT SILL CLEAR 73 68 84 SE3 30.10F  
FREDERICK CLEAR 73 66 78 SE7 30.09S  
CLINTON CLEAR 71 62 73 S10 30.15S  
HOBART CLEAR 75 63 66 S10 30.13S  
ALTUS AFB CLEAR 69 64 82 SE3 30.12S  

 
 
OKZ018>020-024>031-150900-  
CENTRAL OKLAHOMA  
 
CITY SKY/WX TMP DP RH WIND PRES REMARKS
 
OKLAHOMA CITY PTCLDY 70 67 90 S5 30.13S  
OKC/WILEY POST CLEAR 77 65 66 S10 30.12S  
OKC/TINKER AFB CLEAR 74 64 69 SE6 30.13S  
STILLWATER CLEAR 74 67 78 S7 30.11F  
GUTHRIE CLEAR 76 64 66 S9 30.11S  

 
 
OKZ008-013-054>072-150900-  
NORTHEAST OKLAHOMA  
 
CITY SKY/WX TMP DP RH WIND PRES REMARKS
 
TULSA PTCLDY 77 69 76 S8 30.09F  
TULSA/JONES CLEAR 76 69 79 CALM 30.10F  
PONCA CITY CLEAR 75 67 76 S10 30.09F  
BARTLESVILLE CLEAR 72 69 90 S6 30.11F  
MUSKOGEE CLEAR 72 67 84 S5 30.13F  

 
 
OKZ032-040>043-046>053-073>077-150900-  
SOUTH CENTRAL/SOUTHEAST OKLAHOMA  
 
CITY SKY/WX TMP DP RH WIND PRES REMARKS
 
MCALESTER PTCLDY 74 66 76 SE5 30.13S  

 
 
 
 
CLICK HERE TO GO TO PREVIOUS BULLETINS.

The Nexlab OK Page Main Text Page